QPF
0.00 0.00 0.00 0.00 0.00 0.00 0.00 0.00 0.00 0.00 0.00 0.00 0.00 0.00 0.00 0.00 0.00 0.00 0.00 0.00 0.00 0.00 0.00 0.00 0.00 0.00 0.00 0.00 0.00 0.00 0.00 0.00
0.00 0.00 0.00 0.00 0.00 0.00 0.00 0.00 0.00 0.00 0.00 0.00 0.00 0.00 0.00 0.00 0.00 0.00 0.00 0.00 0.00 0.00 0.00 0.00 0.00 0.00 0.00 0.00 0.00 0.00 0.00 0.00
0.00 0.00 0.00 0.00 0.00 0.00 0.00 0.00 0.00 0.00 0.00 0.00 0.00 0.00 0.00 0.00 0.00 0.00 0.00 0.00 0.00 0.00 0.00 0.00 0.00 0.00 0.00 0.00 0.00 0.00 0.00 0.00
0.00 0.00 0.00 0.00 0.00 0.00 0.00 0.00 0.00 0.00 0.00 0.00 0.00 0.00 0.00 0.00 0.00 0.00 0.00 0.00 0.00 0.00 0.00 0.00 0.00 0.00 0.00 0.00 0.00 0.00 0.00 0.00
0.00 0.00 0.00 0.00 0.00 0.00 0.00 0.00 0.00 0.00 0.00 0.00 0.00 0.00 0.00 0.00 0.00 0.00 0.00 0.00 0.00 0.00 0.00 0.00 0.00 0.00 0.00 0.00 0.00 0.00 0.00 0.00
0.00 0.00 0.00 0.00 0.00 0.00 0.00 0.00 0.00 0.00 0.00 0.00 0.00 0.00 0.00 0.00 0.00 0.00 0.00 0.00 0.00 0.00 0.00 0.00 0.00 0.00 0.00 0.00 0.00 0.00 0.00 0.00
0.00 0.00 0.00 0.00 0.00 0.00 0.00 0.00 0.00 0.00 0.00 0.00 0.00 0.00 0.00 0.00 0.00 0.00 0.00 0.00 0.00 0.00 0.00 0.00 0.00 0.00 0.00 0.00 0.00 0.00 0.00 0.00
0.00 0.00 0.00 0.00 0.00 0.00 0.00 0.00 0.00 0.00 0.00 0.00 0.00 0.00 0.00 0.00 0.00 0.00 0.00 0.00 0.00 0.00 0.00 0.00 0.00 0.00 0.00 0.00 0.00 0.00 0.00 0.00
0.00 0.00 0.00 0.00 0.00 0.00 0.00 0.00 0.00 0.00 0.00 0.00 0.00 0.00 0.00 0.00 0.00 0.00 0.00 0.00 0.00 0.00 0.00 0.00 0.00 0.00 0.00 0.00 0.00 0.00 0.00 0.00
0.00 0.00 0.00 0.00 0.00 0.00 0.00 0.00 0.00 0.00 0.00 0.00 0.00 0.00 0.00 0.00 0.00 0.00 0.00 0.00 0.00 0.00 0.02 0.04 0.02 0.01 0.00 0.00 0.00 0.00 0.00 0.00
0.00 0.00 0.01 0.00 0.00 0.00 0.00 0.00 0.00 0.00 0.00 0.00 0.00 0.00 0.00 0.00 0.01 0.03 0.02 0.01 0.02 0.03 0.02 0.02 0.02 0.02 0.01 0.01 0.01 0.00 0.00 0.00
0.00 0.00 0.01 0.00 0.00 0.00 0.00 0.00 0.00 0.00 0.00 0.00 0.00 0.00 0.00 0.00 0.00 0.00 0.00 0.00 0.00 0.01 0.01 0.02 0.03 0.04 0.02 0.01 0.00 0.00 0.00 0.00
0.00 0.00 0.00 0.00 0.00 0.00 0.00 0.00 0.00 0.00 0.00 0.00 0.00 0.00 0.00 0.00 0.00 0.00 0.00 0.00 0.00 0.00 0.00 0.00 0.00 0.00 0.00 0.00 0.00 0.00 0.00 0.00
0.00 0.00 0.00 0.00 0.00 0.00 0.00 0.00 0.00 0.00 0.00 0.00 0.00 0.00 0.00 0.00 0.00 0.00 0.00 0.00 0.00 0.00 0.00 0.00 0.00 0.00 0.00 0.00 0.00 0.00 0.00 0.00
0.00 0.00 0.00 0.00 0.00 0.00 0.00 0.00 0.00 0.00 0.00 0.00 0.00 0.00 0.00 0.00 0.00 0.00 0.00 0.00 0.00 0.00 0.00 0.00 0.00 0.00 0.00 0.01 0.00 0.00 0.00 0.00
0.00 0.00 0.00 0.00 0.00 0.00 0.00 0.00 0.00 0.00 0.00 0.00 0.00 0.00 0.00 0.00 0.00 0.00 0.00 0.00 0.00 0.00 0.00 0.00 0.00 0.00 0.00 0.00 0.01 0.01 0.01 0.00
0.00 0.00 0.00 0.00 0.00 0.00 0.00 0.00 0.00 0.00 0.00 0.00 0.00 0.00 0.00 0.00 0.00 0.00 0.00 0.00 0.00 0.00 0.00 0.00 0.00 0.00 0.00 0.00 0.00 0.00 0.00 0.01
0.00 0.00 0.00 0.00 0.00 0.00 0.00 0.00 0.00 0.00 0.00 0.00 0.00 0.00 0.00 0.00 0.00 0.00 0.00 0.00 0.00 0.00 0.00 0.00 0.00 0.00 0.00 0.00 0.00 0.00 0.00 0.00
0.00 0.00 0.00 0.00 0.00 0.00 0.00 0.00 0.00 0.00 0.00 0.00 0.00 0.00 0.00 0.00 0.00 0.00 0.00 0.00 0.00 0.00 0.00 0.00 0.00 0.00 0.00 0.00 0.00 0.00 0.00 0.00
0.00 0.00 0.00 0.00 0.00 0.00 0.00 0.00 0.00 0.00 0.00 0.00 0.00 0.00 0.00 0.00 0.00 0.00 0.00 0.00 0.00 0.00 0.00 0.00 0.00 0.00 0.00 0.00 0.00 0.00 0.00 0.00
MSLP
1014.15 1014.76 1015.11 1015.47 1015.78 1015.98 1016.26 1016.55 1016.83 1017.05 1017.29 1017.53 1017.79 1018.03 1018.22 1018.41 1018.54 1018.72 1018.87 1019.01 1019.14 1019.25 1019.40 1019.51 1019.49 1019.64 1019.97 1020.09 1020.23 1020.36 1020.54 1020.46
1014.13 1014.61 1014.99 1015.45 1015.81 1016.07 1016.30 1016.54 1016.76 1016.97 1017.31 1017.60 1017.82 1018.02 1018.11 1018.22 1018.46 1018.67 1018.87 1019.06 1019.24 1019.43 1019.52 1019.55 1019.62 1019.74 1020.04 1020.15 1020.21 1020.28 1020.39 1020.42
1014.27 1014.61 1015.06 1015.43 1015.75 1016.03 1016.37 1016.64 1016.85 1017.02 1017.26 1017.48 1017.80 1018.08 1018.26 1018.34 1018.45 1018.62 1018.76 1018.94 1019.10 1019.22 1019.39 1019.60 1019.80 1019.84 1019.87 1020.06 1020.07 1020.36 1020.47 1020.43
1014.44 1014.49 1014.78 1015.26 1015.62 1015.92 1016.19 1016.51 1016.83 1017.20 1017.49 1017.70 1017.86 1018.08 1018.29 1018.42 1018.52 1018.63 1018.78 1018.87 1018.98 1019.12 1019.22 1019.31 1019.42 1019.66 1019.78 1019.85 1020.02 1020.08 1020.16 1020.27
1014.28 1014.59 1014.87 1015.15 1015.31 1015.75 1016.16 1016.44 1016.89 1017.22 1017.52 1017.80 1017.99 1018.13 1018.31 1018.51 1018.66 1018.71 1018.77 1018.79 1018.97 1019.02 1019.17 1019.28 1019.36 1019.40 1019.43 1019.57 1019.79 1019.90 1019.97 1020.02
1014.33 1014.65 1014.95 1015.31 1015.61 1015.83 1016.21 1016.61 1016.98 1017.31 1017.54 1017.77 1017.97 1018.18 1018.33 1018.44 1018.53 1018.69 1018.80 1018.91 1018.99 1019.12 1019.14 1019.11 1019.16 1019.23 1019.28 1019.30 1019.33 1019.41 1019.39 1019.31
1014.20 1014.51 1014.98 1015.32 1015.70 1016.00 1016.30 1016.55 1016.76 1016.98 1017.22 1017.48 1017.73 1018.01 1018.13 1018.21 1018.40 1018.53 1018.56 1018.61 1018.76 1018.86 1018.93 1018.94 1019.02 1018.95 1018.91 1019.02 1018.90 1018.78 1018.78 1018.78
1014.01 1014.55 1014.83 1015.15 1015.71 1015.95 1016.09 1016.30 1016.47 1016.77 1016.90 1017.10 1017.44 1017.75 1017.91 1018.14 1018.35 1018.47 1018.44 1018.58 1018.60 1018.63 1018.64 1018.65 1018.66 1018.67 1018.58 1018.51 1018.43 1018.32 1018.13 1018.08
1013.86 1014.40 1014.62 1015.19 1015.64 1015.69 1015.88 1016.10 1016.36 1016.69 1016.92 1017.11 1017.28 1017.48 1017.66 1017.88 1018.10 1018.18 1018.27 1018.31 1018.34 1018.44 1018.39 1018.37 1018.38 1018.22 1018.10 1017.95 1017.96 1017.77 1017.71 1017.60
1013.77 1014.26 1014.73 1015.06 1015.39 1015.72 1015.92 1016.05 1016.36 1016.77 1017.07 1017.29 1017.36 1017.36 1017.55 1017.72 1017.91 1018.04 1018.06 1018.10 1018.15 1018.14 1018.23 1018.16 1018.09 1017.97 1017.82 1017.59 1017.47 1017.33 1017.12 1017.03
1013.42 1014.15 1014.68 1015.13 1015.41 1015.67 1016.07 1016.34 1016.68 1017.02 1017.22 1017.46 1017.62 1017.68 1017.78 1017.89 1018.06 1018.18 1018.18 1018.10 1018.15 1018.24 1018.31 1018.26 1018.08 1017.83 1017.66 1017.39 1017.16 1017.00 1016.68 1016.32
1013.54 1014.17 1014.96 1015.41 1015.74 1016.19 1016.40 1017.03 1017.45 1017.69 1017.94 1018.16 1018.21 1018.20 1018.15 1018.29 1018.45 1018.48 1018.46 1018.56 1018.55 1018.61 1018.58 1018.37 1018.24 1017.96 1017.64 1017.22 1016.87 1016.44 1016.19 1015.90
1013.86 1014.23 1015.09 1015.71 1016.01 1016.70 1017.19 1017.89 1018.09 1018.45 1018.47 1018.52 1018.58 1018.56 1018.62 1018.75 1018.94 1018.96 1018.91 1018.99 1018.88 1018.82 1018.71 1018.52 1018.40 1018.10 1017.73 1017.18 1016.46 1015.85 1015.95 1015.66
1014.28 1014.65 1015.30 1015.74 1016.07 1016.64 1017.14 1017.76 1018.17 1018.38 1018.44 1018.29 1018.39 1018.49 1018.63 1018.66 1018.76 1018.86 1018.75 1018.75 1018.78 1018.86 1019.04 1019.03 1018.70 1018.31 1018.33 1017.84 1016.99 1016.17 1015.92 1015.95
1014.77 1015.09 1015.42 1015.92 1016.40 1016.74 1017.42 1017.89 1018.28 1018.63 1018.86 1019.08 1019.06 1018.81 1018.74 1018.75 1018.82 1018.89 1019.04 1019.14 1019.26 1019.20 1019.27 1019.28 1019.11 1018.69 1018.41 1018.54 1018.02 1017.32 1016.78 1015.75
1015.03 1015.30 1015.70 1016.23 1016.56 1017.00 1017.74 1018.37 1018.99 1019.40 1019.32 1019.24 1019.08 1019.02 1019.07 1019.02 1019.05 1019.03 1019.07 1019.16 1019.35 1019.37 1019.31 1019.21 1019.16 1019.09 1018.68 1018.30 1018.36 1018.27 1017.58 1016.15
1015.43 1015.64 1016.13 1016.58 1016.92 1017.27 1017.87 1018.43 1018.90 1018.94 1019.06 1019.15 1019.22 1019.10 1019.02 1019.09 1019.08 1019.05 1019.02 1019.04 1019.00 1018.88 1018.89 1019.00 1019.09 1019.13 1018.86 1018.62 1018.43 1018.26 1017.98 1017.67
1015.71 1015.99 1016.52 1016.69 1016.86 1017.27 1017.72 1018.42 1018.93 1019.25 1019.50 1019.58 1019.46 1019.10 1018.83 1018.77 1018.65 1018.73 1018.79 1018.66 1018.58 1018.63 1018.63 1018.68 1018.67 1018.75 1018.82 1018.76 1018.64 1018.35 1017.90 1017.64
1015.89 1016.19 1016.87 1016.98 1017.24 1017.58 1017.93 1018.35 1018.72 1019.10 1019.39 1019.51 1019.41 1019.17 1018.99 1018.91 1018.89 1018.87 1018.81 1018.63 1018.57 1018.47 1018.46 1018.47 1018.43 1018.45 1018.37 1018.25 1018.11 1017.97 1017.66 1017.39
1015.99 1016.29 1016.77 1017.13 1017.30 1017.71 1018.03 1018.36 1018.73 1018.98 1019.04 1019.13 1019.27 1019.38 1019.17 1018.85 1018.93 1019.02 1018.86 1018.70 1018.64 1018.58 1018.60 1018.36 1018.09 1017.89 1017.87 1017.74 1017.54 1017.31 1017.14 1016.98
Thickness
5746 5741 5736 5733 5730 5727 5724 5722 5719 5718 5715 5713 5710 5708 5706 5705 5703 5701 5699 5697 5695 5693 5691 5689 5688 5688 5686 5684 5682 5679 5677 5678
5744 5740 5735 5730 5728 5725 5723 5721 5719 5716 5714 5711 5709 5707 5706 5705 5703 5701 5698 5696 5694 5692 5690 5688 5686 5684 5682 5681 5680 5677 5676 5675
5741 5737 5733 5729 5726 5723 5720 5718 5717 5715 5713 5711 5708 5706 5704 5703 5701 5699 5697 5695 5693 5691 5689 5686 5683 5682 5681 5680 5678 5676 5673 5672
5738 5736 5732 5726 5723 5721 5719 5717 5715 5712 5710 5708 5707 5704 5702 5700 5699 5697 5695 5694 5692 5689 5686 5685 5683 5681 5680 5678 5677 5676 5674 5670
5735 5732 5728 5726 5723 5720 5717 5716 5712 5710 5708 5705 5703 5701 5699 5697 5695 5694 5693 5691 5689 5688 5686 5683 5681 5680 5678 5677 5675 5673 5671 5669
5731 5728 5725 5722 5720 5719 5715 5712 5709 5707 5705 5702 5701 5699 5697 5695 5693 5691 5689 5687 5685 5683 5683 5682 5680 5678 5675 5674 5672 5672 5671 5671
5728 5726 5723 5720 5717 5714 5712 5710 5708 5707 5705 5702 5699 5697 5695 5693 5691 5689 5687 5685 5683 5681 5679 5678 5676 5674 5673 5670 5669 5669 5669 5668
5727 5723 5720 5717 5713 5711 5710 5708 5706 5704 5702 5700 5697 5694 5692 5689 5687 5684 5682 5680 5678 5677 5675 5673 5671 5670 5670 5668 5667 5666 5666 5667
5723 5719 5717 5713 5710 5708 5706 5704 5701 5699 5696 5695 5693 5690 5687 5684 5681 5678 5676 5675 5674 5671 5670 5668 5667 5667 5667 5666 5663 5662 5662 5661
5719 5717 5713 5711 5707 5701 5699 5699 5697 5693 5689 5687 5685 5683 5680 5677 5674 5671 5669 5666 5664 5660 5659 5658 5658 5660 5661 5661 5659 5658 5657 5657
5717 5712 5708 5704 5701 5697 5693 5690 5688 5684 5682 5679 5676 5674 5671 5668 5665 5662 5659 5657 5654 5652 5652 5651 5650 5650 5648 5649 5650 5650 5651 5650
5713 5707 5701 5697 5693 5688 5686 5681 5676 5673 5669 5667 5666 5664 5661 5658 5654 5651 5648 5645 5644 5641 5639 5637 5636 5637 5638 5638 5638 5641 5638 5639
5703 5700 5693 5688 5684 5678 5674 5667 5665 5661 5661 5658 5656 5654 5651 5647 5642 5639 5637 5634 5631 5628 5626 5624 5621 5621 5621 5625 5629 5630 5627 5626
5695 5691 5686 5681 5678 5672 5667 5662 5657 5654 5653 5652 5648 5644 5639 5636 5632 5629 5627 5624 5619 5614 5608 5606 5603 5601 5597 5599 5605 5614 5611 5608
5684 5681 5678 5674 5669 5665 5658 5653 5649 5643 5638 5635 5632 5631 5629 5626 5622 5619 5613 5609 5604 5599 5592 5587 5585 5583 5581 5574 5574 5580 5588 5595
5675 5674 5670 5664 5660 5655 5649 5641 5635 5630 5627 5625 5624 5620 5616 5613 5610 5606 5602 5596 5589 5584 5581 5575 5571 5567 5564 5558 5547 5544 5556 5573
5666 5663 5658 5653 5649 5646 5640 5634 5628 5624 5620 5616 5612 5610 5607 5602 5598 5594 5590 5584 5579 5574 5567 5560 5551 5546 5541 5536 5529 5520 5513 5515
5655 5653 5647 5645 5642 5638 5634 5626 5618 5612 5606 5602 5600 5600 5599 5594 5589 5583 5576 5572 5566 5558 5552 5544 5535 5525 5515 5506 5500 5496 5492 5486
5645 5644 5637 5636 5632 5628 5622 5616 5609 5603 5597 5592 5591 5587 5583 5579 5573 5566 5560 5554 5548 5541 5533 5523 5514 5504 5493 5486 5480 5473 5468 5463
5637 5635 5630 5625 5622 5617 5611 5605 5598 5592 5588 5583 5578 5572 5568 5564 5557 5550 5543 5536 5529 5521 5511 5502 5492 5482 5472 5464 5460 5451 5442 5435